HAZ2345 ZSHC-ZGGG

Flight info

Callsign HAZ2345
Flight time N/A
Altitude 34100
Route ELNEX A599 PLT W19 OLPAB
Aircraft E190/M-SDE2E3FGILRWXY/L2J

Departure

Time 2026-05-05 03:44
Airport Hangzhou Xiaoshan International Airport (ZSHC)

Arrival

Time N/A
Airport Guangzhou Baiyun International Airport (ZGGG)
Time Latitude Longitude Altitude Speed Heading
2026-05-05 03:35 30.23495 120.40893 28 ft 0 kts 153°
2026-05-05 03:41 30.23495 120.40894 28 ft 0 kts 153°
2026-05-05 03:42 30.23474 120.40907 28 ft 3 kts 141°
2026-05-05 03:42 30.23462 120.40935 28 ft 5 kts 92°
2026-05-05 03:42 30.23491 120.40983 28 ft 10 kts 35°
2026-05-05 03:42 30.23567 120.40997 28 ft 13 kts 338°
2026-05-05 03:43 30.23665 120.40934 28 ft 18 kts 333°
2026-05-05 03:43 30.23784 120.40867 28 ft 18 kts 342°
2026-05-05 03:43 30.23868 120.40935 28 ft 22 kts 62°
2026-05-05 03:43 30.24082 120.41433 28 ft 115 kts 64°
2026-05-05 03:44 30.24562 120.42509 149 ft 173 kts 61°
2026-05-05 03:44 30.25199 120.43793 667 ft 198 kts 59°
2026-05-05 03:44 30.25852 120.45292 1327 ft 217 kts 64°
2026-05-05 03:44 30.26540 120.46904 1891 ft 227 kts 64°
2026-05-05 03:45 30.27232 120.48496 2520 ft 226 kts 64°
2026-05-05 03:45 30.27964 120.50168 3218 ft 239 kts 63°
2026-05-05 03:45 30.28721 120.51887 3898 ft 251 kts 63°
2026-05-05 03:45 30.29536 120.53733 4598 ft 262 kts 63°
2026-05-05 03:46 30.30387 120.55661 5290 ft 273 kts 63°
2026-05-05 03:46 30.31254 120.57625 5964 ft 284 kts 63°
2026-05-05 03:46 30.32091 120.59738 6634 ft 293 kts 76°
2026-05-05 03:46 30.32062 120.62075 7285 ft 297 kts 108°
2026-05-05 03:47 30.30948 120.64059 7966 ft 300 kts 140°
2026-05-05 03:47 30.29196 120.65053 8606 ft 303 kts 170°
2026-05-05 03:47 30.27140 120.64877 9271 ft 307 kts 200°
2026-05-05 03:47 30.25413 120.63475 9940 ft 311 kts 231°
2026-05-05 03:48 30.24525 120.61221 10610 ft 315 kts 259°
2026-05-05 03:48 30.24255 120.58707 11327 ft 318 kts 262°
2026-05-05 03:48 30.23989 120.56136 11976 ft 322 kts 262°
2026-05-05 03:48 30.23725 120.53580 12622 ft 325 kts 262°
2026-05-05 03:49 30.23456 120.50971 13273 ft 329 kts 262°
2026-05-05 03:49 30.23186 120.48346 13921 ft 331 kts 262°
2026-05-05 03:49 30.22913 120.45690 14571 ft 334 kts 262°
2026-05-05 03:49 30.22641 120.43040 15214 ft 335 kts 262°
2026-05-05 03:50 30.22172 120.40392 15839 ft 336 kts 248°
2026-05-05 03:50 30.21195 120.38167 16459 ft 335 kts 238°
2026-05-05 03:50 30.19910 120.35914 17111 ft 335 kts 234°
2026-05-05 03:50 30.19033 120.34488 17529 ft 335 kts 233°
2026-05-05 03:51 30.17565 120.32172 18216 ft 335 kts 232°
2026-05-05 03:51 30.16172 120.30003 18863 ft 335 kts 232°
2026-05-05 03:51 30.14793 120.27871 19499 ft 334 kts 232°
2026-05-05 03:51 30.13418 120.25748 20103 ft 334 kts 232°
2026-05-05 03:52 30.12484 120.24308 20442 ft 336 kts 232°
2026-05-05 03:52 30.10616 120.21429 21139 ft 338 kts 232°
2026-05-05 03:52 30.09195 120.19241 21663 ft 340 kts 232°
2026-05-05 03:52 30.07784 120.17071 22181 ft 341 kts 232°
2026-05-05 03:53 30.06355 120.14872 22703 ft 341 kts 232°
2026-05-05 03:53 30.04947 120.12708 23211 ft 341 kts 232°
2026-05-05 03:53 30.03517 120.10510 23727 ft 341 kts 232°
2026-05-05 03:53 30.02095 120.08327 24238 ft 340 kts 232°
2026-05-05 03:54 30.00682 120.06158 24738 ft 339 kts 232°
2026-05-05 03:54 29.99246 120.03954 25133 ft 342 kts 232°
2026-05-05 03:54 29.97813 120.01759 25530 ft 343 kts 232°
2026-05-05 03:54 29.96385 119.99570 25923 ft 345 kts 232°
2026-05-05 03:55 29.94931 119.97343 26321 ft 346 kts 232°
2026-05-05 03:55 29.93490 119.95138 26713 ft 346 kts 232°
2026-05-05 03:55 29.92033 119.92909 27107 ft 347 kts 232°
2026-05-05 03:55 29.90582 119.90690 27497 ft 347 kts 233°
2026-05-05 03:56 29.89163 119.88522 27879 ft 347 kts 233°
2026-05-05 03:56 29.87713 119.86308 28267 ft 346 kts 233°
2026-05-05 03:56 29.86298 119.84148 28647 ft 346 kts 233°
2026-05-05 03:56 29.84840 119.81923 29036 ft 345 kts 233°
2026-05-05 03:57 29.83396 119.79721 29416 ft 344 kts 233°
2026-05-05 03:57 29.81958 119.77530 29796 ft 342 kts 233°
2026-05-05 03:57 29.80529 119.75352 30173 ft 340 kts 233°
2026-05-05 03:57 29.79631 119.73985 30411 ft 339 kts 233°
2026-05-05 03:58 29.78199 119.71806 30788 ft 336 kts 233°
2026-05-05 03:58 29.76803 119.69683 31160 ft 333 kts 233°
2026-05-05 03:58 29.75406 119.67559 31531 ft 330 kts 233°
2026-05-05 03:58 29.74035 119.65477 31897 ft 326 kts 233°
2026-05-05 03:59 29.72683 119.63422 32260 ft 322 kts 233°
2026-05-05 03:59 29.71327 119.61365 32626 ft 318 kts 233°
2026-05-05 03:59 29.70014 119.59373 32983 ft 312 kts 233°
2026-05-05 03:59 29.68277 119.56740 33461 ft 304 kts 234°
2026-05-05 04:00 29.67429 119.55454 33698 ft 300 kts 234°
2026-05-05 04:00 29.66185 119.53569 34047 ft 293 kts 234°
2026-05-05 04:00 29.64967 119.51725 34159 ft 294 kts 234°
2026-05-05 04:00 29.63711 119.49826 34174 ft 297 kts 232°
2026-05-05 04:01 29.61055 119.46330 34180 ft 305 kts 230°
2026-05-05 04:01 29.58192 119.42661 34185 ft 313 kts 229°
2026-05-05 04:02 29.55219 119.38872 34186 ft 322 kts 229°
2026-05-05 04:02 29.52174 119.34994 34188 ft 332 kts 229°
2026-05-05 04:03 29.49056 119.31024 34190 ft 342 kts 229°
2026-05-05 04:03 29.45822 119.26911 34191 ft 352 kts 229°
2026-05-05 04:04 29.42485 119.22673 34194 ft 362 kts 229°
2026-05-05 04:04 29.39070 119.18338 34195 ft 372 kts 229°
2026-05-05 04:05 29.35564 119.13895 34195 ft 382 kts 229°
2026-05-05 04:05 29.31956 119.09335 34197 ft 391 kts 229°
2026-05-05 04:06 29.28244 119.04649 34243 ft 400 kts 229°
2026-05-05 04:06 29.24465 118.99886 34234 ft 409 kts 229°
2026-05-05 04:07 29.20578 118.94997 34231 ft 418 kts 229°
2026-05-05 04:07 29.16621 118.90025 34222 ft 427 kts 229°
2026-05-05 04:08 29.12606 118.84988 34221 ft 434 kts 229°
2026-05-05 04:08 29.08455 118.79786 34216 ft 442 kts 228°
2026-05-05 04:09 29.04277 118.74558 34217 ft 449 kts 227°
2026-05-05 04:09 29.00013 118.69228 34217 ft 456 kts 227°
2026-05-05 04:10 28.95144 118.63153 34219 ft 465 kts 227°
2026-05-05 04:10 28.91501 118.58611 34226 ft 470 kts 227°
2026-05-05 04:11 28.87044 118.53063 34226 ft 477 kts 227°
2026-05-05 04:11 28.82587 118.47522 34222 ft 483 kts 227°
2026-05-05 04:12 28.77230 118.40873 34220 ft 489 kts 227°
2026-05-05 04:12 28.73384 118.36105 34220 ft 494 kts 227°
2026-05-05 04:13 28.68095 118.29558 34221 ft 499 kts 227°
2026-05-05 04:13 28.64197 118.24741 34220 ft 502 kts 227°
2026-05-05 04:14 28.59432 118.18857 34220 ft 506 kts 227°
2026-05-05 04:14 28.54659 118.12973 34220 ft 509 kts 227°
2026-05-05 04:15 28.49868 118.07076 34219 ft 512 kts 227°
2026-05-05 04:15 28.45017 118.01113 34219 ft 514 kts 227°
2026-05-05 04:16 28.40101 117.95152 34219 ft 516 kts 226°
2026-05-05 04:16 28.35134 117.89277 34220 ft 518 kts 226°
2026-05-05 04:17 28.30138 117.83380 34218 ft 519 kts 226°
2026-05-05 04:17 28.25132 117.77480 34218 ft 520 kts 226°
2026-05-05 04:18 28.20126 117.71588 34218 ft 521 kts 226°
2026-05-05 04:18 28.15097 117.65678 34221 ft 521 kts 226°
2026-05-05 04:19 28.10059 117.59766 34164 ft 522 kts 226°
2026-05-05 04:19 28.05003 117.53842 34080 ft 524 kts 226°
2026-05-05 04:20 27.99968 117.47946 34022 ft 524 kts 226°
2026-05-05 04:20 27.94875 117.41993 34012 ft 524 kts 226°
2026-05-05 04:21 27.90007 117.36310 34020 ft 523 kts 226°
2026-05-05 04:21 27.87530 117.33421 34235 ft 519 kts 225°
2026-05-05 04:21 27.85038 117.30517 34180 ft 521 kts 225°
2026-05-05 04:22 27.80002 117.24654 34197 ft 521 kts 225°
2026-05-05 04:22 27.74928 117.18757 34201 ft 521 kts 225°
2026-05-05 04:23 27.69912 117.12933 34201 ft 522 kts 225°
2026-05-05 04:23 27.64824 117.07036 34201 ft 522 kts 225°
2026-05-05 04:24 27.59963 117.01409 34201 ft 521 kts 225°
2026-05-05 04:25 27.52405 116.92673 34201 ft 519 kts 225°
2026-05-05 04:25 27.47403 116.86823 34195 ft 517 kts 226°
2026-05-05 04:26 27.42431 116.81007 34184 ft 517 kts 226°
2026-05-05 04:26 27.37461 116.75201 34176 ft 516 kts 226°
2026-05-05 04:27 27.32486 116.69397 34173 ft 515 kts 226°
2026-05-05 04:27 27.27520 116.63611 34173 ft 515 kts 226°
2026-05-05 04:28 27.22507 116.57779 34169 ft 515 kts 226°
2026-05-05 04:28 27.17633 116.51952 34174 ft 515 kts 227°
2026-05-05 04:29 27.12736 116.46021 34173 ft 515 kts 227°
2026-05-05 04:29 27.07894 116.40163 34173 ft 515 kts 227°
2026-05-05 04:30 27.02959 116.34203 34154 ft 520 kts 226°
2026-05-05 04:30 26.98040 116.28268 34146 ft 520 kts 226°
2026-05-05 04:31 26.93107 116.22327 34148 ft 522 kts 226°
2026-05-05 04:31 26.88154 116.16307 34167 ft 524 kts 227°
2026-05-05 04:32 26.83228 116.10311 34161 ft 526 kts 227°
2026-05-05 04:32 26.77427 116.03261 34137 ft 528 kts 227°
2026-05-05 04:33 26.73285 115.98234 34120 ft 530 kts 227°
2026-05-05 04:33 26.68265 115.92149 34111 ft 531 kts 227°
2026-05-05 04:34 26.63275 115.86109 34124 ft 531 kts 227°
2026-05-05 04:34 26.58269 115.80057 34129 ft 531 kts 227°
2026-05-05 04:35 26.53221 115.73964 34124 ft 532 kts 227°
2026-05-05 04:35 26.48194 115.67905 34129 ft 532 kts 227°
2026-05-05 04:36 26.43191 115.61882 34140 ft 532 kts 227°
2026-05-05 04:36 26.38170 115.55846 34140 ft 532 kts 227°
2026-05-05 04:37 26.33125 115.49790 34138 ft 532 kts 227°
2026-05-05 04:37 26.28072 115.43733 34149 ft 532 kts 227°
2026-05-05 04:38 26.23047 115.37717 34157 ft 532 kts 227°
2026-05-05 04:38 26.18009 115.31694 34148 ft 532 kts 226°
2026-05-05 04:39 26.12965 115.25671 34152 ft 532 kts 226°
2026-05-05 04:39 26.07901 115.19634 34168 ft 532 kts 227°
2026-05-05 04:40 26.02844 115.13613 34162 ft 532 kts 227°
2026-05-05 04:40 25.97800 115.07615 34158 ft 531 kts 227°
2026-05-05 04:41 25.92770 115.01642 34166 ft 528 kts 227°
2026-05-05 04:41 25.87781 114.95725 34173 ft 524 kts 227°
2026-05-05 04:42 25.82536 114.90110 34175 ft 522 kts 223°
2026-05-05 04:42 25.76800 114.85258 34158 ft 522 kts 210°
2026-05-05 04:43 25.70051 114.82378 34153 ft 523 kts 194°
2026-05-05 04:43 25.62821 114.81759 34151 ft 525 kts 177°
2026-05-05 04:44 25.55528 114.81924 34149 ft 523 kts 187°
2026-05-05 04:44 25.50782 114.80800 34149 ft 522 kts 198°
2026-05-05 04:44 25.48524 114.79878 34154 ft 521 kts 202°
2026-05-05 04:45 25.41562 114.77748 34170 ft 522 kts 193°
2026-05-05 04:45 25.34749 114.76073 34156 ft 523 kts 193°
2026-05-05 04:46 25.27635 114.74316 34151 ft 523 kts 193°
2026-05-05 04:46 25.20524 114.72563 34148 ft 524 kts 193°
2026-05-05 04:47 25.13437 114.70818 34147 ft 524 kts 193°
2026-05-05 04:47 25.05408 114.68843 34145 ft 525 kts 193°
2026-05-05 04:48 24.99440 114.67377 34147 ft 527 kts 193°
2026-05-05 04:48 24.92319 114.65630 34149 ft 529 kts 192°
2026-05-05 04:49 24.86544 114.64214 34147 ft 530 kts 192°
2026-05-05 04:49 24.79378 114.62454 34147 ft 531 kts 192°
2026-05-05 04:50 24.72216 114.60566 34136 ft 532 kts 195°
2026-05-05 04:50 24.65332 114.57697 34142 ft 532 kts 208°
2026-05-05 04:51 24.59143 114.53302 34146 ft 532 kts 211°
2026-05-05 04:51 24.52728 114.49223 34146 ft 533 kts 210°
2026-05-05 04:52 24.46290 114.45164 34147 ft 533 kts 210°
2026-05-05 04:52 24.39893 114.41139 34148 ft 533 kts 210°
2026-05-05 04:53 24.33432 114.37086 34148 ft 533 kts 210°
2026-05-05 04:53 24.27002 114.33057 34147 ft 533 kts 209°
2026-05-05 04:54 24.20575 114.29036 34147 ft 533 kts 209°
2026-05-05 04:54 24.14137 114.25012 34147 ft 533 kts 209°
2026-05-05 04:55 24.06838 114.19930 34132 ft 533 kts 217°
2026-05-05 04:55 24.02465 114.15228 34140 ft 533 kts 231°
2026-05-05 04:56 23.98406 114.08440 34140 ft 532 kts 235°
2026-05-05 04:56 23.93665 114.02267 34149 ft 533 kts 230°
2026-05-05 04:57 23.89389 113.96724 34148 ft 533 kts 230°